EW7528 Weather Reports


time (UTC)temp
F
wind
direction
speed
knots
gust
knots
rain 1hr
in
rain 24hr
in
rain mn
in
humidity
%
barometer
mb
20260507074511 52 11 0.9 4.3 0.00 0.00 0.00 83 1015.1
20260507074238 52 350 1.7 7.0 0.00 0.00 0.00 83 1015.1
20260507073735 52 348 2.6 7.8 0.00 0.00 0.00 83 1015.1
20260507073228 52 355 1.7 7.8 0.00 0.00 0.00 83 1015.2
20260507072506 52 348 2.6 7.0 0.00 0.00 0.00 83 1015.1
20260507072005 51 348 2.6 8.7 0.00 0.00 0.00 83 1015.1
20260507071950 51 344 1.7 8.7 0.00 0.00 0.00 83 1015.0
20260507071005 51 350 1.7 7.0 0.00 0.00 0.00 84 1015.0
20260507070503 51 342 1.7 7.0 0.00 0.00 0.00 84 1015.0
20260507070003 51 330 0.9 4.3 0.00 0.00 0.00 85 1015.1
20260507065502 50 350 1.7 4.3 0.00 0.00 0.00 85 1014.9
20260507065003 50 33 1.7 4.3 0.00 0.00 0.00 85 1015.0
20260507064500 50 355 1.7 1.7 0.00 0.00 0.00 87 1015.0
20260507063925 50 355 1.7 5.2 0.00 0.00 0.00 87 1014.9
20260507063116 50 347 1.7 4.3 0.00 0.00 0.00 87 1014.8
20260507062610 49 313 0.9 3.5 0.00 0.00 0.00 88 1014.7
20260507062104 49 347 0.9 3.5 0.00 0.00 0.00 88 1014.7
20260507061824 49 348 0.9 3.5 0.00 0.00 0.00 88 1014.8
20260507061053 49 349 0.0 2.6 0.00 0.00 0.00 89 1014.8
20260507060546 48 348 0.9 3.5 0.00 0.00 0.00 89 1014.7
20260507060041 48 348 0.9 3.5 0.00 0.00 0.00 89 1014.8
20260507055536 48 345 0.9 3.5 0.00 0.00 0.00 89 1014.7
20260507055246 48 348 0.9 3.5 0.00 0.00 0.00 89 1014.6
20260507054522 48 351 0.9 3.5 0.00 0.00 0.00 89 1014.6
20260507054240 47 355 0.9 2.6 0.00 0.00 0.00 89 1014.5
20260507053511 47 350 0.9 2.6 0.00 0.00 0.00 89 1014.5
20260507053005 47 348 0.9 2.6 0.00 0.00 0.00 89 1014.5
20260507052501 47 11 0.9 2.6 0.00 0.00 0.00 89 1014.5
20260507051957 47 0 0.9 3.5 0.00 0.00 0.00 89 1014.4
20260507051456 47 0 0.9 3.5 0.00 0.00 0.00 89 1014.4
20260507050954 47 5 0.9 2.6 0.00 0.00 0.00 89 1014.4
20260507050711 47 9 0.9 2.6 0.00 0.00 0.00 88 1014.3
20260507045950 47 355 0.9 2.6 0.00 0.00 0.00 88 1014.2
20260507045449 47 5 0.9 3.5 0.00 0.00 0.00 88 1014.3
20260507045218 47 5 0.9 3.5 0.00 0.00 0.00 88 1014.2
20260507044713 47 17 0.9 1.7 0.00 0.00 0.00 88 1014.1
20260507043948 47 5 0.9 2.6 0.00 0.00 0.00 88 1014.1
20260507043448 47 5 0.9 2.6 0.00 0.00 0.00 87 1014.0
20260507043433 47 5 0.0 2.6 0.00 0.00 0.00 87 1014.0
20260507042447 48 5 0.9 2.6 0.00 0.00 0.00 87 1013.9
20260507041946 48 17 0.9 2.6 0.00 0.00 0.00 86 1013.9
20260507041446 48 5 0.9 2.6 0.00 0.00 0.00 86 1013.8
20260507040946 48 11 1.7 4.3 0.00 0.00 0.00 85 1013.9
20260507040445 48 17 2.6 4.3 0.00 0.00 0.00 84 1013.9
20260507035942 48 9 1.7 3.5 0.00 0.00 0.00 83 1013.9
20260507035442 49 350 1.7 3.5 0.00 0.00 0.00 83 1013.9
20260507034942 49 17 1.7 3.5 0.00 0.00 0.00 82 1013.8
20260507034435 49 351 2.6 5.2 0.00 0.00 0.00 82 1013.7
20260507033930 49 355 2.6 7.0 0.00 0.00 0.00 82 1013.7
20260507033908 49 42 2.6 7.0 0.00 0.00 0.00 82 1013.6
20260507032930 49 9 1.7 5.2 0.00 0.00 0.00 81 1013.6
20260507032917 49 33 1.7 5.2 0.00 0.00 0.00 81 1013.5
20260507031930 49 84 0.9 4.3 0.00 0.00 0.00 81 1013.5
20260507031431 49 20 1.7 4.3 0.00 0.00 0.00 81 1013.5
20260507030930 49 25 1.7 5.2 0.00 0.00 0.00 82 1013.4
20260507030431 49 0 2.6 6.1 0.00 0.00 0.00 82 1013.3
20260507025930 49 342 2.6 7.0 0.00 0.00 0.00 82 1013.3
20260507025430 49 11 1.7 7.0 0.00 0.00 0.00 84 1013.3
20260507024931 49 355 1.7 5.2 0.00 0.00 0.00 85 1013.3
20260507024921 49 355 2.6 7.0 0.00 0.00 0.00 85 1013.3
20260507024156 49 347 2.6 7.0 0.00 0.00 0.00 85 1013.2
20260507023430 49 355 2.6 5.2 0.00 0.00 0.00 86 1013.3
20260507022929 49 38 2.6 4.3 0.00 0.00 0.00 86 1013.3
20260507022430 49 14 1.7 3.5 0.00 0.00 0.00 86 1013.2
20260507021928 49 5 1.7 3.5 0.00 0.00 0.00 86 1013.2
20260507021428 49 5 1.7 6.1 0.00 0.00 0.00 86 1013.1
20260507020927 49 17 1.7 6.1 0.00 0.00 0.00 86 1013.2
20260507020425 49 5 1.7 3.5 0.00 0.00 0.00 86 1013.1
20260507015926 50 0 1.7 4.3 0.00 0.00 0.00 86 1013.0
20260507015426 50 350 1.7 4.3 0.00 0.00 0.00 85 1012.9
20260507014926 50 10 2.6 4.3 0.00 0.00 0.00 85 1012.9
20260507014426 50 23 2.6 6.1 0.00 0.00 0.00 85 1012.9
20260507013926 50 5 2.6 6.1 0.00 0.00 0.00 85 1012.9
20260507013428 50 20 2.6 5.2 0.00 0.00 0.00 85 1012.8
20260507012924 50 0 2.6 5.2 0.00 0.00 0.00 84 1012.9
20260507012424 50 36 2.6 4.3 0.00 0.00 0.00 84 1012.9
20260507011925 50 336 2.6 7.0 0.00 0.00 0.00 84 1012.8
20260507011424 51 342 2.6 7.0 0.00 0.00 0.00 84 1012.8
20260507010923 51 355 2.6 7.0 0.00 0.00 0.00 83 1012.9
20260507010423 51 0 2.6 7.0 0.00 0.00 0.00 83 1012.8
20260507005926 51 338 3.5 7.0 0.00 0.00 0.00 83 1012.8
20260507005424 51 349 3.5 7.8 0.00 0.00 0.00 83 1012.8
20260507004923 51 349 2.6 7.8 0.00 0.00 0.00 82 1012.7
20260507004417 51 319 2.6 7.8 0.00 0.00 0.00 82 1012.7
20260507004142 51 351 2.6 7.8 0.00 0.00 0.00 82 1012.6
20260507003623 51 5 1.7 4.3 0.00 0.00 0.00 82 1012.6
20260507003121 51 68 2.6 4.3 0.00 0.00 0.00 81 1012.7
20260507002612 52 0 2.6 8.7 0.00 0.00 0.00 81 1012.7
20260507001847 52 351 2.6 8.7 0.00 0.00 0.00 80 1012.6
20260507001342 52 5 2.6 7.8 0.00 0.00 0.00 80 1012.6
20260507000836 52 348 2.6 7.8 0.00 0.00 0.00 80 1012.6
20260507000551 52 355 2.6 7.0 0.00 0.00 0.00 80 1012.6
20260507000045 52 355 2.6 7.0 0.00 0.00 0.00 79 1012.6
20260506235317 52 30 2.6 7.8 0.00 0.00 0.00 79 1012.6
20260506234813 52 347 2.6 7.8 0.00 0.00 0.00 79 1012.5
20260506234305 52 346 1.7 7.0 0.00 0.00 0.00 79 1012.5
20260506233759 53 326 1.7 7.0 0.00 0.00 0.00 78 1012.5
20260506233253 53 349 1.7 7.8 0.00 0.00 0.00 78 1012.4
20260506232748 53 347 2.6 7.8 0.00 0.00 0.00 78 1012.4
20260506232241 53 355 2.6 7.8 0.00 0.00 0.00 77 1012.3
20260506231735 53 0 3.5 7.8 0.00 0.00 0.00 77 1012.3
20260506231451 53 5 3.5 7.8 0.00 0.00 0.00 77 1012.3
20260506230723 53 344 3.5 7.8 0.00 0.00 0.00 76 1012.2
20260506230221 53 23 3.5 7.8 0.00 0.00 0.00 76 1012.1
20260506225722 53 0 3.5 7.8 0.00 0.00 0.00 76 1012.1
20260506225441 53 18 3.5 7.8 0.00 0.00 0.00 76 1012.2
20260506224723 53 351 3.5 7.8 0.00 0.00 0.00 76 1012.1
20260506224221 53 351 3.5 7.0 0.00 0.00 0.00 76 1012.1
20260506223723 53 341 2.6 8.7 0.00 0.00 0.00 76 1012.2
20260506223219 54 46 2.6 8.7 0.00 0.00 0.00 76 1012.1
20260506222720 54 339 2.6 7.8 0.00 0.00 0.00 76 1012.1
20260506222219 54 355 2.6 7.0 0.00 0.00 0.00 76 1012.1
20260506221719 54 0 1.7 7.0 0.00 0.00 0.00 76 1012.2
20260506221446 54 346 0.9 4.3 0.00 0.00 0.00 76 1012.1
20260506220717 54 348 0.9 3.5 0.00 0.00 0.00 76 1012.1
20260506220215 54 346 1.7 4.3 0.00 0.00 0.00 75 1012.1
20260506220205 54 344 1.7 4.3 0.00 0.00 0.00 75 1011.9
20260506215216 54 350 1.7 4.3 0.00 0.00 0.00 74 1012.0
20260506215202 54 346 1.7 7.0 0.00 0.00 0.00 74 1011.9
20260506214214 54 355 1.7 7.0 0.00 0.00 0.00 73 1011.9
20260506213708 54 0 1.7 7.0 0.00 0.00 0.00 73 1011.9
20260506213202 54 5 1.7 5.2 0.00 0.00 0.00 72 1011.9
20260506212656 54 0 1.7 7.0 0.00 0.00 0.00 72 1011.9
20260506212150 54 0 0.9 7.0 0.00 0.00 0.00 72 1011.9
20260506211644 54 5 0.0 3.5 0.00 0.00 0.00 73 1011.8
20260506211404 53 5 0.0 3.5 0.00 0.00 0.00 73 1011.7
20260506210632 53 5 0.0 1.7 0.00 0.00 0.00 74 1011.6
20260506210126 53 155 0.0 0.0 0.00 0.00 0.00 74 1011.7
20260506210105 53 155 0.0 0.0 0.00 0.00 0.00 74 1011.7
20260506205116 53 155 0.0 0.0 0.00 0.00 0.00 74 1011.6
20260506204608 53 155 0.0 0.0 0.00 0.00 0.00 74 1011.6
20260506204102 53 155 0.0 0.0 0.00 0.00 0.00 73 1011.6
20260506203556 53 155 0.0 0.0 0.00 0.00 0.00 73 1011.6
20260506203536 53 155 0.0 0.0 0.00 0.00 0.00 73 1011.6
20260506202544 53 155 0.0 0.0 0.00 0.00 0.00 73 1011.6
20260506202038 53 155 0.0 0.0 0.00 0.00 0.00 72 1011.7
20260506201531 54 155 0.0 0.0 0.00 0.00 0.00 72 1011.5
20260506201026 54 155 0.0 0.9 0.00 0.00 0.00 72 1011.5
20260506200524 54 155 0.0 0.9 0.00 0.00 0.00 73 1011.4
20260506200025 54 155 0.0 0.9 0.00 0.00 0.00 73 1011.4
20260506195522 54 155 0.0 1.7 0.00 0.00 0.00 72 1011.4
20260506195020 54 155 0.0 1.7 0.00 0.00 0.00 72 1011.3
20260506194518 54 155 0.0 1.7 0.00 0.00 0.00 72 1011.2
20260506194019 54 155 0.0 0.9 0.00 0.00 0.00 73 1011.2
20260506193743 54 155 0.0 0.9 0.00 0.00 0.00 73 1011.2
20260506193017 54 155 0.0 0.9 0.00 0.00 0.00 73 1011.1
20260506192742 54 155 0.0 0.0 0.00 0.00 0.00 73 1011.1
20260506192015 54 155 0.0 0.0 0.00 0.00 0.00 73 1011.1
20260506191510 54 155 0.0 0.0 0.00 0.00 0.00 73 1011.0
20260506191008 54 155 0.0 0.0 0.00 0.00 0.00 73 1010.9
20260506190506 54 155 0.0 0.9 0.00 0.00 0.00 73 1010.7
20260506190223 54 155 0.0 0.9 0.00 0.00 0.00 72 1010.7
20260506185502 54 156 0.0 0.0 0.00 0.00 0.00 72 1010.6
20260506185000 54 155 0.0 0.0 0.00 0.00 0.00 72 1010.6
20260506184458 54 155 0.0 0.0 0.00 0.00 0.00 72 1010.5
20260506183956 54 155 0.0 0.0 0.00 0.00 0.00 72 1010.5
20260506183456 54 155 0.0 0.0 0.00 0.00 0.00 73 1010.4
20260506182956 54 155 0.0 0.0 0.00 0.00 0.00 73 1010.3
20260506182455 54 155 0.0 0.9 0.00 0.00 0.00 73 1010.3
20260506181954 54 155 0.0 0.9 0.00 0.00 0.00 73 1010.2
20260506181450 54 157 0.0 0.9 0.00 0.00 0.00 72 1010.2
20260506180950 54 95 0.0 0.0 0.00 0.00 0.00 73 1010.2
20260506180709 55 95 0.0 0.0 0.00 0.00 0.00 72 1010.1
20260506175946 55 95 0.0 0.0 0.00 0.00 0.00 73 1010.2
20260506175444 55 96 0.0 0.0 0.00 0.00 0.00 72 1010.0
20260506174942 55 94 0.0 1.7 0.00 0.00 0.00 72 1010.1
20260506174442 55 94 0.0 1.7 0.00 0.00 0.00 71 1010.0
20260506174428 55 93 0.9 2.6 0.00 0.00 0.00 71 1009.9
20260506173441 55 93 0.9 3.5 0.00 0.00 0.00 69 1009.8
20260506172942 55 113 0.9 5.2 0.00 0.00 0.00 68 1009.7
20260506172702 55 28 0.9 5.2 0.00 0.00 0.00 67 1009.5
20260506171942 56 84 0.9 4.3 0.00 0.00 0.00 66 1009.6
20260506171443 56 86 0.9 7.0 0.00 0.00 0.00 67 1009.5
20260506170942 56 49 1.7 7.0 0.00 0.00 0.00 65 1009.6
20260506170444 56 103 1.7 8.7 0.00 0.00 0.00 66 1009.6
20260506170208 56 9 2.6 8.7 0.00 0.00 0.00 65 1009.6
20260506165442 56 55 2.6 7.8 0.00 0.00 0.00 64 1009.4
20260506164939 56 48 2.6 7.8 0.00 0.00 0.00 65 1009.4
20260506164440 56 71 1.7 5.2 0.00 0.00 0.00 65 1009.4
20260506163940 56 55 1.7 6.1 0.00 0.00 0.00 66 1009.5
20260506163440 56 20 1.7 6.1 0.00 0.00 0.00 65 1009.4
20260506162938 56 51 1.7 6.1 0.00 0.00 0.00 67 1009.5
20260506162433 56 355 1.7 6.1 0.00 0.00 0.00 65 1009.4
20260506161928 56 63 1.7 8.7 0.00 0.00 0.00 66 1009.4
20260506161423 56 11 2.6 8.7 0.00 0.00 0.00 65 1009.4
20260506160915 56 330 3.5 10.4 0.00 0.00 0.00 65 1009.5
20260506160411 56 18 3.5 10.4 0.00 0.00 0.00 64 1009.4
20260506155904 56 82 2.6 7.8 0.00 0.00 0.00 65 1009.4
20260506155357 56 96 1.7 7.8 0.00 0.00 0.00 66 1009.5
20260506154851 56 84 1.7 7.0 0.00 0.00 0.00 65 1009.5
20260506154345 56 336 1.7 8.7 0.00 0.00 0.00 65 1009.5
20260506154101 56 0 2.6 8.7 0.00 0.00 0.00 64 1009.4
20260506153333 56 5 2.6 9.6 0.00 0.00 0.00 63 1009.5
20260506152827 57 15 1.7 12.2 0.00 0.00 0.00 64 1009.5
20260506152321 57 35 3.5 12.2 0.00 0.00 0.00 62 1009.4
20260506151815 57 26 3.5 11.3 0.00 0.00 0.00 60 1009.4
20260506151310 58 154 2.6 7.8 0.00 0.00 0.00 62 1009.4
20260506150803 58 305 2.6 8.7 0.00 0.00 0.00 63 1009.2
20260506150515 58 17 3.5 8.7 0.00 0.00 0.00 61 1009.3
20260506145749 58 91 3.5 9.6 0.00 0.00 0.00 60 1009.3
20260506145243 58 65 3.5 9.6 0.00 0.00 0.00 62 1009.2
20260506144737 58 119 3.5 9.6 0.00 0.00 0.00 59 1009.1
20260506144233 58 35 2.6 7.8 0.00 0.00 0.00 58 1009.1
20260506143727 58 14 2.6 7.8 0.00 0.00 0.00 57 1009.1
20260506143220 58 61 3.5 9.6 0.00 0.00 0.00 58 1009.0
20260506142713 58 72 3.5 9.6 0.00 0.00 0.00 57 1009.1
20260506142209 58 11 3.5 13.0 0.00 0.00 0.00 58 1009.1
20260506141701 58 9 3.5 13.0 0.00 0.00 0.00 57 1009.1
20260506141156 58 17 3.5 8.7 0.00 0.00 0.00 58 1009.1
20260506140909 58 23 3.5 8.7 0.00 0.00 0.00 61 1009.2
20260506140403 58 342 3.5 7.8 0.00 0.00 0.00 63 1009.2
20260506135637 58 45 3.5 9.6 0.00 0.00 0.00 63 1009.2
20260506135132 59 41 4.3 9.6 0.00 0.00 0.00 65 1009.2
20260506134626 59 355 4.3 10.4 0.00 0.00 0.00 62 1009.0
20260506134119 59 0 4.3 10.4 0.00 0.00 0.00 62 1009.1
20260506133614 60 5 3.5 10.4 0.00 0.00 0.00 60 1009.0
20260506133327 60 5 3.5 10.4 0.00 0.00 0.00 62 1009.1
20260506132601 60 48 3.5 11.3 0.00 0.00 0.00 63 1009.0
20260506132327 60 39 4.3 11.3 0.00 0.00 0.00 62 1009.0
20260506131549 60 0 4.3 11.3 0.00 0.00 0.00 60 1008.9
20260506131249 60 335 5.2 13.9 0.00 0.00 0.00 62 1008.9
20260506131135 60 313 3.5 9.6 0.00 0.00 0.00 63 1008.8
20260506130040 60 78 4.3 13.9 0.00 0.00 0.00 61 1008.9
20260506125539 60 344 4.3 10.4 0.00 0.00 0.00 62 1008.8
20260506125039 60 16 3.5 10.4 0.00 0.00 0.00 62 1008.7
20260506124539 60 9 5.2 10.4 0.00 0.00 0.00 64 1008.7
20260506124039 60 5 5.2 10.4 0.00 0.00 0.00 64 1008.7
20260506123540 59 5 3.5 10.4 0.00 0.00 0.00 64 1008.7
20260506123040 59 347 3.5 10.4 0.00 0.00 0.00 66 1008.7
20260506122540 58 17 3.5 9.6 0.00 0.00 0.00 67 1008.6
20260506122040 58 5 3.5 9.6 0.00 0.00 0.00 65 1008.7
20260506121541 58 0 5.2 12.2 0.00 0.00 0.00 64 1008.6
20260506121039 58 9 5.2 12.2 0.00 0.00 0.00 60 1008.7
20260506120539 58 343 6.1 12.2 0.00 0.00 0.00 63 1008.7
20260506120039 58 319 6.1 13.0 0.00 0.00 0.00 60 1008.5
20260506115803 60 348 6.1 13.0 0.00 0.00 0.00 59 1008.6
20260506115037 60 346 7.0 13.9 0.00 0.00 0.00 61 1008.5
20260506114535 60 27 7.0 13.9 0.00 0.00 0.00 58 1008.6
20260506114035 60 5 6.1 13.9 0.00 0.00 0.00 64 1008.4
20260506113529 60 327 6.1 12.2 0.00 0.00 0.00 64 1008.4
20260506113248 60 41 5.2 12.2 0.00 0.00 0.00 65 1008.4
20260506112517 60 341 6.1 12.2 0.00 0.00 0.00 66 1008.4
20260506112013 60 24 5.2 11.3 0.00 0.00 0.00 65 1008.5
20260506111513 60 15 4.3 9.6 0.00 0.00 0.00 64 1008.4
20260506111013 60 20 3.5 8.7 0.00 0.00 0.00 66 1008.4
20260506110513 59 18 4.3 10.4 0.00 0.00 0.00 66 1008.3
20260506110010 58 36 4.3 10.4 0.00 0.00 0.00 66 1008.2
20260506105511 57 350 3.5 9.6 0.00 0.00 0.00 66 1008.4
20260506105010 57 336 3.5 7.8 0.00 0.00 0.00 66 1008.4
20260506104511 57 355 3.5 9.6 0.00 0.00 0.00 66 1008.5
20260506104009 57 44 4.3 10.4 0.00 0.00 0.00 66 1008.4
20260506103509 57 30 4.3 10.4 0.00 0.00 0.00 66 1008.4
20260506103231 57 351 4.3 9.6 0.00 0.00 0.00 65 1008.4
20260506102509 58 17 3.5 9.6 0.00 0.00 0.00 66 1008.4
20260506102009 58 336 4.3 10.4 0.00 0.00 0.00 67 1008.3
20260506101509 57 313 4.3 11.3 0.00 0.00 0.00 68 1008.4
20260506101448 58 355 5.2 11.3 0.00 0.00 0.00 69 1008.3
20260506100509 58 335 5.2 13.0 0.00 0.00 0.00 69 1008.5
20260506100009 58 333 4.3 13.0 0.00 0.00 0.00 71 1008.4
20260506095508 58 348 4.3 11.3 0.00 0.00 0.00 73 1008.4
20260506095009 58 342 4.3 10.4 0.00 0.00 0.00 73 1008.3
20260506094508 58 336 4.3 11.3 0.00 0.00 0.00 73 1008.4
20260506094225 58 344 5.2 13.0 0.00 0.00 0.00 73 1008.3
20260506093502 58 348 5.2 13.0 0.00 0.00 0.00 72 1008.3
20260506093003 58 5 4.3 13.0 0.00 0.00 0.00 73 1008.3
20260506092503 58 23 4.3 10.4 0.00 0.00 0.00 75 1008.4
20260506092004 57 355 3.5 10.4 0.00 0.00 0.00 75 1008.3
20260506091503 57 329 3.5 9.6 0.00 0.00 0.00 76 1008.2
20260506091002 57 355 3.5 9.6 0.00 0.00 0.00 75 1008.2
20260506090503 56 347 4.3 10.4 0.00 0.00 0.00 75 1008.2
20260506090002 56 350 4.3 10.4 0.00 0.00 0.00 76 1008.1
20260506085723 56 337 5.2 12.2 0.00 0.00 0.00 76 1008.2
20260506085002 56 355 6.1 13.0 0.00 0.00 0.00 76 1008.2
20260506084731 56 34 5.2 13.0 0.00 0.00 0.00 77 1008.2
20260506084221 56 351 5.2 11.3 0.00 0.00 0.00 78 1008.2
20260506083502 56 348 5.2 11.3 0.00 0.00 0.00 79 1008.1
20260506083003 55 350 5.2 11.3 0.00 0.00 0.00 80 1008.1
20260506082725 55 346 4.3 10.4 0.00 0.00 0.00 81 1007.9
20260506082001 55 21 5.2 12.2 0.00 0.00 0.00 82 1008.0
20260506081500 54 342 5.2 12.2 0.00 0.00 0.00 82 1008.0
20260506080956 54 320 5.2 12.2 0.00 0.00 0.00 83 1008.0
20260506080447 54 0 4.3 10.4 0.00 0.00 0.00 83 1008.0